Regional Weather Roundup
Issued by NWS

Home | Current Version | Previous Version | Text Only | Print | Product List | Glossary On
Versions: 1 2 3 4 5 6 7 8 9 10 11 12 13 14 15 16 17 18 19 20 21 22 23 24 25 26 27 28 29 30 31 32 33 34 35 36 37 38 39 40 41 42 43 44 45 46 47 48
000
ASUS43 KMPX 130010
RWRMN
WEATHER ROUNDUP FOR MINNESOTA
NATIONAL WEATHER SERVICE TWIN CITIES/CHANHASSEN MN
700 PM CDT WED AUG 12 2020


NOTE: "FAIR" INDICATES FEW OR NO CLOUDS BELOW 12,000 FEET WITH NO
SIGNIFICANT WEATHER AND/OR OBSTRUCTIONS TO VISIBILITY. N/A MEANS
CURRENT SKY AND/OR WEATHER CONDITIONS ARE NOT AVAILABLE.

MNZ060>063-068>070-130100-
   Twin Cities Metro

CITY           SKY/WX    TMP DP  RH WIND       PRES   REMARKS
TWIN CITIES    PTSUNNY   67  62  84 E13       30.01F
6HR MIN TEMP:  66; 6HR MAX TEMP:  74; 6HR PCP:  0.11;

ST PAUL        PTSUNNY   67  61  81 E8        30.02F
CRYSTAL        PTSUNNY   67  62  84 E7        30.01R
BLAINE         MOSUNNY   66  64  94 NE9       30.02F
LAKEVILLE      CLOUDY    72  55  56 NE12G18   30.01R
EDEN PRAIRIE   LGT RAIN  66  62  87 NE10      30.00R
6HR MIN TEMP:  66; 6HR MAX TEMP:  77; 6HR PCP:  0.13;

SOUTH ST PAUL  PTSUNNY   67  62  81 NE3       30.01F
LAKE ELMO      FAIR      64  63  94 E7        30.03F
$$
MNZ001>005-007-008-013>017-022>024-027-028-130100-
   Northwest Minnesota

CITY           SKY/WX    TMP DP  RH WIND       PRES   REMARKS
BEMIDJI        MOSUNNY   72  62  71 SE10      30.00S
HALLOCK        SUNNY     82  63  51 S14       29.89S
ROSEAU         SUNNY     81 N/A N/A S12       29.95R
THIEF RVR FALL SUNNY     78  64  61 SE14      29.96S
CROOKSTON      SUNNY     79  63  57 S14       29.93R
FOSSTON        SUNNY     72  61  68 SE9       29.98S
DETROIT LAKES    N/A     70  61  73 SE12      29.98R
MOORHEAD       MOSUNNY   75  61  60 SE12G17   29.93R
PARK RAPIDS    SUNNY     71  59  65 SE14      29.99F
MAHNOMEN       FAIR      73  61  65 SE12G17   29.96S
$$
MNZ006-009>011-018-025>026-130100-
   North Central Minnesota

CITY           SKY/WX    TMP DP  RH WIND       PRES   REMARKS
BAUDETTE       MOSUNNY   79  62  56 S8        29.98R
FLAG ISLAND      N/A     77  66  69 S9        29.95S
INTL FALLS     MOSUNNY   77  57  50 S6        30.00S
6HR MIN TEMP:  77; 6HR MAX TEMP:  81;

WASKISH        MOSUNNY   73  64  73 S6        30.00R
BIG FORK       MOSUNNY   72  63  73 S5        30.08S
LONGVILLE      MOSUNNY   70  61  73 S8        30.02S
GRAND RAPIDS   CLOUDY    68  62  81 SE6       30.07S
CRANE LAKE     MOSUNNY   75  57  53 CALM      30.04S
ORR            MOSUNNY   75  59  57 S6        30.02S
COOK           MOSUNNY   73  59  60 S5        30.04S
WALKER         FAIR      70  62  75 SE9       30.01S
$$
MNZ012-019>021-037-130100-
   Northeast Minnesota

CITY           SKY/WX    TMP DP  RH WIND       PRES   REMARKS
DULUTH         LGT RAIN  63  59  87 S8        30.09R
6HR MIN TEMP:  63; 6HR MAX TEMP:  77; 6HR PCP:  0.01;

ELY            PTSUNNY   73  55  53 S8        30.06S
HIBBING        PTSUNNY   70  61  73 S7        30.05S
EVELETH        PTSUNNY   71  62  71 S9        30.08R
DULUTH HARBOR  RAIN      64  57  77 SW8       30.09R
TWO HARBORS    DRIZZLE   68  59  73 S9        30.08R
SILVER BAY       N/A     70  61  73 CALM      30.07S
GRAND MARAIS     N/A     67  55  65 CALM      30.05R
G MARAIS ARPRT PTSUNNY   70  59  68 CALM      30.10S
$$
MNZ029>031-032-039>041-046>048-054>057-064-130100-
   West Central Minnesota

CITY           SKY/WX    TMP DP  RH WIND       PRES   REMARKS
FERGUS FALLS   CLOUDY    70  63  78 SE13      29.93F
WHEATON        MOSUNNY   72  64  78 E14       29.92S
MORRIS         SUNNY     70  64  83 E15G25    29.94R
ALEXANDRIA     CLOUDY    66  62  87 E14       29.98F
ELBOW LAKE     CLOUDY    69  64  85 SE17      29.94F
WADENA         CLOUDY    66  61  82 SE12      29.98S
GLENWOOD       CLOUDY    66  63  88 E12       29.98S
APPLETON       CLOUDY    75  66  73 E13G18    29.90R
BENSON         MOSUNNY   72  64  78 E12G18    29.93S
ORTONVILLE     CLOUDY    73  68  83 E13G21    29.89S
MADISON        MOSUNNY   81  73  78 E12       29.89R
WILLMAR        FAIR      72  64  78 E14       29.98S
$$
MNZ033>034-036-042>043-049>051-058-059-130100-
   Central Minnesota

CITY           SKY/WX    TMP DP  RH WIND       PRES   REMARKS
ST CLOUD       CLOUDY    63  62  97 E9        30.00F
6HR MIN TEMP:  63; 6HR MAX TEMP:  71; 6HR PCP:  1.08;

SAUK CENTRE    CLOUDY    65  63  92 E12       29.99S
PAYNESVILLE    CLOUDY    67  64  87 E8G16     29.99S
AITKIN         MOSUNNY   66  59  77 E6        30.03R
PINE RIVER     SUNNY     66  59  77 SE7       30.04S
BRAINERD       CLOUDY    69  62  78 SE7       30.01F
STAPLES        CLOUDY    66  61  82 E5        29.99F
LONG PRAIRIE   CLOUDY    63  61  94 E8        30.00S
LITTLE FALLS     N/A     61  61 100 SE6       30.01R
CAMP RIPLEY    CLOUDY    64  62  93 SE8       30.01F
LITCHFIELD     CLOUDY    70  66  88 E10       29.99S
BUFFALO        CLOUDY    65  62  90 MISG      30.02R
MAPLE LAKE       N/A     66  65  96 E8        30.02S
HUTCHINSON     CLOUDY    68  66  92 E13G18    29.99S
$$
MNZ037-044-045-052-053-130100-
   East Central Minnesota

CITY           SKY/WX    TMP DP  RH WIND       PRES   REMARKS
PRINCETON      CLOUDY    64  63  94 E6        30.03S
MORA           RAIN      55  55 100 SE9       30.06F
CAMBRIDGE      LGT RAIN  64  55  72 N6        30.06R
RUSH CITY      HVY RAIN  59  57  94 E8        30.06S VSB 3/4
MOOSE LAKE     CLOUDY    63  59  88 S3        30.04F
HINCKLEY       LGT RAIN  61  61 100 E5        30.06S
CLOQUET        LGT RAIN  61  57  88 CALM      30.09R
$$
MNZ071>073-080-081-089-090-097-098-130100-
   Southwest Minnesota

CITY           SKY/WX    TMP DP  RH WIND       PRES   REMARKS
MONTEVIDEO     CLOUDY    75  70  83 SE12      29.91S
GRANITE FALLS  CLOUDY    81  74  79 E7        29.91S
CANBY          PTSUNNY   84  71  65 S6        29.89R
MARSHALL       MOSUNNY   84  73  69 S10       29.89S HX  90
REDWOOD FALLS  SUNNY     79  71  76 SE12      29.91S
OLIVIA         CLOUDY    77  70  78 E8        29.94R
PIPESTONE        N/A     82  73  74 S15       29.91R
WINDOM         SUNNY     81  73  78 SE8       29.92S
WORTHINGTON    SUNNY     82  71  69 S14       29.93S
JACKSON        MOSUNNY   82  70  65 S12G18    29.95S
TRACY          SUNNY     84  70  61 S8        29.90S
SLAYTON        MOSUNNY   82  68  62 S12       29.93R
$$
MNZ065>067-074>077-082>085-091>093-130100-
   South Central Minnesota

CITY           SKY/WX    TMP DP  RH WIND       PRES   REMARKS
MANKATO        SUNNY     77  70  79 SE13      29.96R
NEW ULM        SUNNY     77  70  78 SE12      29.93S
ST JAMES         N/A     79  72  78 SE12      29.92F
FAIRMONT       SUNNY     81  73  76 S17       29.95S
GLENCOE        LGT RAIN  68  65  90 NE6       29.98R
FARIBAULT      MOSUNNY   79  66  65 SE10G17   29.99S
OWATONNA       SUNNY     79  66  65 SE12      29.99R
ALBERT LEA     SUNNY     79  68  69 S13G23    29.99R
$$
MNZ078>079-086>088-094>096-130100-
   Southeast Minnesota

CITY           SKY/WX    TMP DP  RH WIND       PRES   REMARKS
ROCHESTER      SUNNY     76  62  62 SE14      30.02R
6HR MIN TEMP:  64; 6HR MAX TEMP:  78; 6HR PCP:  0.09;

RED WING       CLOUDY    75  64  69 E3        30.01R
STANTON        PTSUNNY   76  65  69 E6        29.99R
DODGE CENTER   SUNNY     75  63  64 SE8       30.02R
WINONA         SUNNY     79  63  57 CALM      30.02R
AUSTIN         SUNNY     79  66  65 S9        30.00F
PRESTON        SUNNY     77  60  56 SE10G18   30.03F
$$
ABBREVIATIONS USED IN REMARKS
   TC - TEMPERATURES IN CELSIUS
  WCI - WIND CHILL INDEX
   HX - HEAT INDEX
  VSB - VISIBILITY
$$



USA.gov is the U.S. government's official web portal to all federal, state and local government web resources and services.